Regional Weather Roundup
Issued by NWS

Home | Current Version | Previous Version | Graphics & Text | Print | Product List | Glossary On
Versions: 1 2 3 4 5 6 7 8 9 10 11 12 13 14 15 16 17 18 19 20 21 22 23 24 25 26 27 28 29 30 31 32 33 34 35 36 37 38 39 40 41 42 43 44 45 46 47 48 49 50
000
ASUS43 KMKX 020911
RWRWI

WISCONSIN REGIONAL WEATHER ROUNDUP
NATIONAL WEATHER SERVICE MILWAUKEE/SULLIVAN WI
400 AM CDT WED SEP 02 2015

NOTE: "FAIR" INDICATES FEW OR NO CLOUDS BELOW 12,000 FEET WITH NO
SIGNIFICANT WEATHER AND/OR OBSTRUCTIONS TO VISIBILITY.

WIZ001-002-006>008-014>016-023>028-021000-
NORTHWEST WISCONSIN

CITY           SKY/WX    TMP DP  RH WIND       PRES   REMARKS
SUPERIOR ARPT  CLOUDY    66  66 100 N5        29.91S FOG
ASHLAND        FOG       68  68 100 NE6       29.91F VSB 1/2
HAYWARD        CLOUDY    70  69  97 CALM      29.95R FOG
SIREN            N/A     72  69  91 E9        29.94R
CUMBERLAND     CLOUDY    70  70 100 CALM      29.93S THUNDER FOG
RICE LAKE      CLOUDY    72  71  96 CALM      29.94S FOG
CHETEK         CLOUDY   N/A N/A N/A CALM      29.93F FOG
LADYSMITH      FOG       71  69  96 CALM      29.97S VSB 3/4
EAU CLAIRE     CLOUDY    73  71  93 SW5       29.93S
MENOMONIE      CLOUDY    72  71  97 CALM      29.93S FOG
NEW RICHMOND   LGT RAIN  73  72  96 S3        29.93S
OSCEOLA        RAIN      73  73 100 CALM      29.94F
$$

WIZ003>005-009-010-017-018-021000-
NORTH CENTRAL WISCONSIN

CITY           SKY/WX    TMP DP  RH WIND       PRES   REMARKS
MANITOWISH WTR MOCLDY    63  63 100 CALM      29.98F FOG
ARBOR VITAE    MOCLDY    67  66  95 CALM      29.98F
WOODRUFF       MOCLDY    67  66  95 CALM      29.98F
RHINELANDER    MOCLDY    68  65  90 CALM      29.99F FOG
EAGLE RIVER    MOCLDY    64  64 100 CALM      29.99S FOG
LAND O LAKES   CLOUDY    61  61 100 CALM      30.00F FOG
PHILLIPS       CLOUDY    68  68 100 CALM      29.96F FOG
TOMAHAWK       FOG       67  66  97 CALM      29.98S VSB 1/4
MEDFORD        PTCLDY    69  69 100 S5        29.97F FOG
MERRILL        FOG       64  64 100 CALM      29.98S VSB 1/4
$$

WIZ029-030-035-036-043>047-021000-
CENTRAL WISCONSIN

CITY           SKY/WX    TMP DP  RH WIND       PRES   REMARKS
WAUSAU         PTCLDY    71  70  96 CALM      29.96S FOG
MOSINEE        MOCLDY    68  68 100 SW3       29.99S FOG
MARSHFIELD     FOG       69  66  90 SW5       29.98S VSB 1/4
STEVENS POINT  PTCLDY    69  69  99 CALM      29.98S FOG
WAUPACA        FOG       70  69  98 CALM      29.96F VSB 1
WAUTOMA        FOG       68  68 100 CALM      29.98S VSB 1/4
WISC RAPIDS    FOG       70  68  93 SW3       29.99S VSB 3/4
CAMP DOUGLAS   FOG       64  64 100 SE1       29.98R VSB 1/2
$$

WIZ011>013-019>022-031-037>040-048>050-021000-
NORTHEAST WISCONSIN

CITY           SKY/WX    TMP DP  RH WIND       PRES   REMARKS
ANTIGO         FOG       66  66 100 CALM      29.99S VSB 1/4
SHAWANO        PTCLDY    72  70  94 CALM      29.96S FOG
OCONTO           N/A     68  68 100 CALM      29.94S
STURGEON BAY   MOCLDY    73  70  88 W5        29.97S
GREEN BAY      PTCLDY    71  69  93 CALM      29.96S FOG
MANITOWOC      PTCLDY    64  61  90 MISG      29.95F
APPLETON       PTCLDY    70  70 100 CALM      29.96S FOG
CLINTONVILLE   FOG       66  64  94 CALM      29.95S VSB<1/4
OSHKOSH        PTCLDY    73  70  90 SW7       29.97S FOG
$$

WIZ032>034-041-042-053>061-021000-
SOUTHWEST WISCONSIN

CITY           SKY/WX    TMP DP  RH WIND       PRES   REMARKS
LA CROSSE      PTCLDY    75  71  87 SE6       29.95R
SPARTA         PTCLDY    65  64  96 CALM      29.98R FOG
VIROQUA          N/A     71  71 100 SW6       30.00R
BOSCOBEL       FOG       67  66  97 CALM      29.99R VSB 1
PRAIRIE DU CHI PTCLDY    73  67  83 CALM      29.99R
PLATTEVILLE    CLEAR     69  68  96 S5        30.01S
$$

WIZ056-057-062-063-064-067-068-021000-
SOUTH CENTRAL WISCONSIN

CITY           SKY/WX    TMP DP  RH WIND       PRES   REMARKS
REEDSBURG      PTCLDY    72  71  96 CALM      29.98R
BARABOO/DELLS  MOCLDY    73  68  84 W3        29.99R
LONE ROCK      PTCLDY    67  65  93 CALM      29.99S FOG
MINERAL POINT  CLEAR     72  68  88 SW6       30.02R
MADISON        MOCLDY    75  69  81 SW3       29.99S
MIDDLETON      PTCLDY    74  69  83 W3        30.00S
WATERTOWN      PTCLDY    69  69 100 CALM      30.00S FOG
MONROE         CLEAR     70  68  94 SW8       30.01S
JANESVILLE     PTCLDY    70  70 100 CALM      30.00S
$$

WIZ051-052-058>065-066-070>072-021000-
SOUTHEAST WISCONSIN

CITY           SKY/WX    TMP DP  RH WIND       PRES   REMARKS
MILWAUKEE      MOCLDY    75  69  81 W6        30.00R
WAUKESHA       FAIR      68  66  94 CALM      30.02S FOG
MILWAUKEE/TIMM PTCLDY    72  66  83 SW3       30.01S
RACINE         CLOUDY    75  68  78 W7        30.02R
BURLINGTON     PTCLDY    65  64  97 CALM      30.01S FOG
KENOSHA        CLOUDY    74  69  85 W7        30.01S
FOND DU LAC    PTCLDY    72  71  97 SW7       29.98S
SHEBOYGAN      PTCLDY    71  70  96 SW6       29.97S
WEST BEND      PTCLDY    70  68  94 CALM      30.00S
JUNEAU         PTCLDY    70  69  96 S3        30.01S FOG
$$

LSZ147-162-021000-
LAKE SUPERIOR

STATION/POSITION TIME  TEMP    WIND        PRES    WAVE
                       AIR SEA DIR/SP/G            HT/PER
                 (UTC) (F)     (DEG/KT/KT) (MB)    (FT/S)
W MID LAKE BUOY  0850   57 56   50/  4/  4 1013.7F   0
DEVILS ISLAND    0900   68     120/  7/  7 1013.5S
PORT WING        0840   64      30/  6/  7 1013.2F
SAXON HARBOR     0840   65        CALM     1012.9F
$$

LMZ867-665-643>646-021000-
LAKE MICHIGAN

STATION/POSITION TIME  TEMP    WIND        PRES    WAVE
                       AIR SEA DIR/SP/G            HT/PER
                 (UTC) (F)     (DEG/KT/KT) (MB)    (FT/S)
CHAMBERS ISLAND  0800   73     200/  4/  8 1013.9S
S GREEN BAY BUOY 0800   70 67  220/  6/  8 1015.5
N MID LAKE BUOY  0850   66 65  210/  8/ 10 1013.6R   2/ 4
NORTHPORT PIER   0840   65      CALM  /  1 1013.5F
SISTER BAY       0834   70        CALM       N/A
ALGOMA LAKESHORE 0814             CALM       N/A
KEWAUNEE LAKESHO 0800   54     160/  4/  4 1013.3F
SHEBOYGAN LAKESH 0900   71     210/  6/  6 1014.6F
PORT WASHINGTON  0830          260/  5/ 24 1015.9S
ATWATER BUOY     0900   67 49  240/  6/  6 1016.9R
MILWAUKEE LAKESH 0810   77     250/  7/ 10   N/A
S MID LAKE BUOY  0850   72 70  200/  8/ 10 1015.5R   1/ 4
KENOSHA   LAKESH 0900   77     250/  7/ 10 1015.6S
$$

TC  - TEMPERATURE IN CELSIUS
VSB - VISIBILITY IN STATUTE MILES
WCI - WIND CHILL INDEX
HX  - HEAT INDEX




USA.gov is the U.S. government's official web portal to all federal, state and local government web resources and services.